This demonstration page uses our WeatherBlox Daily Observations layout. Learn more.

Left ArrowRight Arrow

31.31129, -92.44514

Hourly Observations for July 11, 2022

Temp ( °F °C ) Dew Point ( °F °C ) Humidity (%) Winds ( mph kmh ) Pressure ( in mb ) Visibility ( mi km ) Precip ( " mm )
12:53 am 00:53 Mostly Cloudy 83 28.3 76 24.4 79 79 NE 3 6 29.88 1012 9 14 0.00 0.00
1:53 am 01:53 Clear 82 27.8 76 24.4 82 82 Calm 29.88 1012 9 14 0.00 0.00
2:53 am 02:53 Mostly Clear 82 27.8 76 24.4 82 82 Calm 29.87 1012 9 14 0.00 0.00
3:53 am 03:53 Clear 81 27.2 76 24.4 85 85 NE 3 6 29.87 1012 6 10 0.00 0.00
4:53 am 04:53 Mostly Cloudy 80 26.7 76 24.4 87 87 Calm 29.88 1012 8 13 0.00 0.00
5:53 am 05:53 Cloudy 80 26.7 75 23.9 85 85 ENE 3 6 29.87 1011 8 13 0.00 0.00
6:19 am 06:19 Partly Cloudy 80 26.7 75 23.9 85 85 Calm 29.87 1011 7 11 0.00 0.00
6:53 am 06:53 Sunny 80 26.7 75 23.9 85 85 Calm 29.87 1012 7 11 0.00 0.00
7:53 am 07:53 Mostly Sunny 82 27.8 75 23.9 79 79 Calm 29.88 1012 8 13 0.00 0.00
8:53 am 08:53 Mostly Sunny 85 29.4 76 24.4 75 75 S 5 7 29.88 1012 8 13 0.00 0.00
9:53 am 09:53 Sunny 87 30.6 77 25 72 72 ESE 5 7 29.88 1012 9 14 0.00 0.00
10:53 am 10:53 Mostly Cloudy 90 32.2 78 25.6 68 68 VRB 5 7 29.88 1012 10 16 0.00 0.00
11:14 am 11:14 Cloudy 89 31.7 78 25.6 70 70 Calm 29.86 1011 10 16 0.00 0.00
11:29 am 11:29 Mostly Cloudy 90 32.2 76 24.4 63 63 SW 5 7 29.86 1011 10 16 0.00 0.00
11:53 am 11:53 Mostly Cloudy 91 32.8 76 24.4 61 61 Calm 29.87 1012 10 16 0.00 0.00
12:53 pm 12:53 Mostly Cloudy 94 34.4 75 23.9 54 54 VRB 3 6 29.85 1011 10 16 0.00 0.00
1:53 pm 13:53 Partly Cloudy 97 36.1 75 23.9 49 49 VRB 5 7 29.84 1011 10 16 0.00 0.00
2:53 pm 14:53 Partly Cloudy 98 36.7 75 23.9 48 48 Calm 29.82 1010 10 16 0.00 0.00
3:53 pm 15:53 Sunny 100 37.8 75 23.9 45 45 E 7 11 29.80 1009 10 16 0.00 0.00
4:53 pm 16:53 Partly Cloudy 98 36.7 72 22.2 43 43 E 6 9 29.77 1008 10 16 0.00 0.00
5:53 pm 17:53 Mostly Sunny 96 35.6 75 23.9 51 51 SE 12 19 29.77 1008 10 16 0.00 0.00
6:53 pm 18:53 Mostly Sunny 95 35 74 23.3 51 51 ESE 7 11 29.78 1009 10 16 0.00 0.00
7:53 pm 19:53 Partly Cloudy 90 32.2 76 24.4 63 63 SSW 6 9 29.79 1009 10 16 0.00 0.00
8:53 pm 20:53 Mostly Cloudy 86 30 76 24.4 72 72 SE 6 9 29.83 1010 10 16 0.00 0.00
9:53 pm 21:53 Partly Cloudy 87 30.6 75 23.9 67 67 Calm 29.85 1011 10 16 0.00 0.00
10:53 pm 22:53 Mostly Cloudy 88 31.1 75 23.9 66 66 E 3 6 29.87 1012 10 16 0.00 0.00
11:53 pm 23:53 Mostly Cloudy 86 30 76 24.4 72 72 S 5 7 29.86 1011 10 16 0.00 0.00

Powered by AerisWeather